Time,TemperatureF,DewpointF,PressureIn,WindDirection,WindDirectionDegrees,WindSpeedMPH,WindSpeedGustMPH,Humidity,HourlyPrecipIn,Conditions,Clouds,dailyrainin,SoftwareType,DateUTC
2013-10-16 00:00:00,52.3,32.6,29.90,NNE,27,3.0,4.0,47,0.00,,,0.00,Wunderground v.1.15,2013-10-16 06:00:00,
2013-10-16 00:10:00,51.2,32.2,29.90,NNE,25,5.0,5.0,48,0.00,,,0.00,Wunderground v.1.15,2013-10-16 06:10:00,
2013-10-16 00:15:00,51.1,32.1,29.90,NE,35,2.0,5.0,48,0.00,,,0.00,Wunderground v.1.15,2013-10-16 06:15:00,
2013-10-16 00:25:00,51.2,32.2,29.90,WSW,246,2.0,3.0,48,0.00,,,0.00,Wunderground v.1.15,2013-10-16 06:25:00,
2013-10-16 00:30:00,51.2,31.6,29.90,SW,228,2.0,2.0,47,0.00,,,0.00,Wunderground v.1.15,2013-10-16 06:30:00,
2013-10-16 00:35:00,51.4,31.8,29.89,East,81,2.0,2.0,47,0.00,,,0.00,Wunderground v.1.15,2013-10-16 06:35:00,
2013-10-16 00:45:00,51.5,31.9,29.88,ENE,61,4.0,10.0,47,0.00,,,0.00,Wunderground v.1.15,2013-10-16 06:45:00,
2013-10-16 00:50:00,51.5,31.9,29.88,ENE,57,6.0,6.0,47,0.00,,,0.00,Wunderground v.1.15,2013-10-16 06:50:00,
2013-10-16 00:55:00,51.5,31.9,29.89,SE,124,5.0,6.0,47,0.00,,,0.00,Wunderground v.1.15,2013-10-16 06:55:00,
2013-10-16 01:05:00,51.2,31.6,29.90,East,98,5.0,5.0,47,0.00,,,0.00,Wunderground v.1.15,2013-10-16 07:05:00,
2013-10-16 01:10:00,51.1,32.1,29.89,ESE,111,3.0,5.0,48,0.00,,,0.00,Wunderground v.1.15,2013-10-16 07:10:00,
2013-10-16 01:20:00,51.2,32.2,29.89,SSW,198,5.0,5.0,48,0.00,,,0.00,Wunderground v.1.15,2013-10-16 07:20:00,
2013-10-16 01:25:00,51.0,32.5,29.90,WSW,237,4.0,6.0,49,0.00,,,0.00,Wunderground v.1.15,2013-10-16 07:25:00,
2013-10-16 01:30:00,50.5,32.5,29.90,West,279,5.0,5.0,50,0.00,,,0.00,Wunderground v.1.15,2013-10-16 07:30:00,
2013-10-16 01:40:00,50.0,33.1,29.91,West,277,4.0,4.0,52,0.00,,,0.00,Wunderground v.1.15,2013-10-16 07:40:00,
2013-10-16 01:45:00,49.9,33.0,29.91,West,278,3.0,4.0,52,0.00,,,0.00,Wunderground v.1.15,2013-10-16 07:45:00,
2013-10-16 01:50:00,49.7,32.8,29.91,West,279,2.0,2.0,52,0.00,,,0.00,Wunderground v.1.15,2013-10-16 07:50:00,
2013-10-16 02:00:00,49.5,33.1,29.90,NW,313,4.0,6.0,53,0.00,,,0.00,Wunderground v.1.15,2013-10-16 08:00:00,
2013-10-16 02:05:00,49.2,32.8,29.91,NW,310,5.0,6.0,53,0.00,,,0.00,Wunderground v.1.15,2013-10-16 08:05:00,
2013-10-16 02:10:00,49.1,33.2,29.91,NW,319,4.0,4.0,54,0.00,,,0.00,Wunderground v.1.15,2013-10-16 08:10:00,
2013-10-16 02:20:00,48.8,32.9,29.91,NW,317,7.0,7.0,54,0.00,,,0.00,Wunderground v.1.15,2013-10-16 08:20:00,
2013-10-16 02:25:00,48.8,33.3,29.91,NNW,338,6.0,7.0,55,0.00,,,0.00,Wunderground v.1.15,2013-10-16 08:25:00,
2013-10-16 02:35:00,49.0,33.1,29.92,North,355,3.0,5.0,54,0.00,,,0.00,Wunderground v.1.15,2013-10-16 08:35:00,
2013-10-16 02:40:00,49.0,33.1,29.91,NNW,340,4.0,5.0,54,0.00,,,0.00,Wunderground v.1.15,2013-10-16 08:40:00,
2013-10-16 02:45:00,49.1,33.2,29.91,NW,321,6.0,6.0,54,0.00,,,0.00,Wunderground v.1.15,2013-10-16 08:45:00,
2013-10-16 02:55:00,49.0,33.1,29.91,NW,309,5.0,5.0,54,0.00,,,0.00,Wunderground v.1.15,2013-10-16 08:55:00,
2013-10-16 03:00:00,49.0,33.1,29.91,NW,306,6.0,8.0,54,0.00,,,0.00,Wunderground v.1.15,2013-10-16 09:00:00,
2013-10-16 03:10:00,48.7,33.2,29.91,WNW,295,6.0,6.0,55,0.00,,,0.00,Wunderground v.1.15,2013-10-16 09:10:00,
2013-10-16 03:15:00,48.8,32.9,29.91,WNW,295,2.0,6.0,54,0.00,,,0.00,Wunderground v.1.15,2013-10-16 09:15:00,
2013-10-16 03:25:00,48.6,33.1,29.91,West,277,3.0,4.0,55,0.00,,,0.00,Wunderground v.1.15,2013-10-16 09:25:00,
2013-10-16 03:30:00,48.3,33.3,29.91,WNW,294,5.0,5.0,56,0.00,,,0.00,Wunderground v.1.15,2013-10-16 09:30:00,
2013-10-16 03:40:00,48.1,33.1,29.91,WNW,284,3.0,3.0,56,0.00,,,0.00,Wunderground v.1.15,2013-10-16 09:40:00,
2013-10-16 03:45:00,48.0,33.0,29.91,WNW,284,1.0,3.0,56,0.00,,,0.00,Wunderground v.1.15,2013-10-16 09:45:00,
2013-10-16 03:55:00,47.9,33.4,29.91,WNW,298,3.0,3.0,57,0.00,,,0.00,Wunderground v.1.15,2013-10-16 09:55:00,
2013-10-16 04:00:00,47.9,33.4,29.91,WNW,298,2.0,2.0,57,0.00,,,0.00,Wunderground v.1.15,2013-10-16 10:00:00,
2013-10-16 04:10:00,47.8,33.3,29.91,NW,310,2.0,5.0,57,0.00,,,0.00,Wunderground v.1.15,2013-10-16 10:10:00,
2013-10-16 04:15:00,47.8,33.3,29.92,West,269,4.0,5.0,57,0.00,,,0.00,Wunderground v.1.15,2013-10-16 10:15:00,
2013-10-16 04:20:00,47.7,33.2,29.92,WNW,287,4.0,4.0,57,0.00,,,0.00,Wunderground v.1.15,2013-10-16 10:20:00,
2013-10-16 04:25:00,47.7,33.6,29.91,SW,232,3.0,4.0,58,0.00,,,0.00,Wunderground v.1.15,2013-10-16 10:25:00,
2013-10-16 04:35:00,47.7,33.6,29.92,WSW,254,3.0,5.0,58,0.00,,,0.00,Wunderground v.1.15,2013-10-16 10:35:00,
2013-10-16 04:40:00,47.6,33.5,29.92,WNW,284,3.0,3.0,58,0.00,,,0.00,Wunderground v.1.15,2013-10-16 10:40:00,
2013-10-16 04:50:00,47.2,33.2,29.92,West,278,4.0,4.0,58,0.00,,,0.00,Wunderground v.1.15,2013-10-16 10:50:00,
2013-10-16 04:55:00,47.0,33.4,29.92,NW,312,4.0,5.0,59,0.00,,,0.00,Wunderground v.1.15,2013-10-16 10:55:00,
2013-10-16 05:00:00,46.8,33.2,29.92,NW,310,4.0,5.0,59,0.00,,,0.00,Wunderground v.1.15,2013-10-16 11:00:00,
2013-10-16 05:10:00,46.5,32.9,29.92,NW,318,4.0,4.0,59,0.00,,,0.00,Wunderground v.1.15,2013-10-16 11:10:00,
2013-10-16 05:15:00,46.4,33.3,29.92,NW,318,4.0,4.0,60,0.00,,,0.00,Wunderground v.1.15,2013-10-16 11:15:00,
2013-10-16 05:25:00,46.2,33.1,29.92,NW,318,2.0,3.0,60,0.00,,,0.00,Wunderground v.1.15,2013-10-16 11:25:00,
2013-10-16 05:30:00,46.1,33.0,29.92,NW,318,1.0,1.0,60,0.00,,,0.00,Wunderground v.1.15,2013-10-16 11:30:00,
2013-10-16 05:35:00,46.0,33.3,29.93,NW,318,1.0,1.0,61,0.00,,,0.00,Wunderground v.1.15,2013-10-16 11:35:00,
2013-10-16 05:40:00,45.9,33.2,29.93,NW,317,1.0,2.0,61,0.00,,,0.00,Wunderground v.1.15,2013-10-16 11:40:00,
2013-10-16 05:50:00,45.8,33.1,29.93,NW,317,2.0,2.0,61,0.00,,,0.00,Wunderground v.1.15,2013-10-16 11:50:00,
2013-10-16 06:00:00,45.6,33.3,29.93,NNW,329,3.0,3.0,62,0.00,,,0.00,Wunderground v.1.15,2013-10-16 12:00:00,
2013-10-16 06:05:00,45.4,33.1,29.93,NNW,330,3.0,3.0,62,0.00,,,0.00,Wunderground v.1.15,2013-10-16 12:05:00,
2013-10-16 06:10:00,45.3,33.4,29.93,NNW,330,2.0,2.0,63,0.00,,,0.00,Wunderground v.1.15,2013-10-16 12:10:00,
2013-10-16 06:20:00,45.0,33.2,29.94,NNW,329,2.0,3.0,63,0.00,,,0.00,Wunderground v.1.15,2013-10-16 12:20:00,
2013-10-16 06:25:00,44.7,32.9,29.94,NW,319,3.0,3.0,63,0.00,,,0.00,Wunderground v.1.15,2013-10-16 12:25:00,
2013-10-16 06:30:00,44.6,32.8,29.94,NW,318,3.0,3.0,63,0.00,,,0.00,Wunderground v.1.15,2013-10-16 12:30:00,
2013-10-16 06:35:00,44.5,33.1,29.95,NW,317,3.0,3.0,64,0.00,,,0.00,Wunderground v.1.15,2013-10-16 12:35:00,
2013-10-16 06:40:00,44.3,32.9,29.95,NW,316,3.0,3.0,64,0.00,,,0.00,Wunderground v.1.15,2013-10-16 12:40:00,
2013-10-16 06:50:00,44.0,32.6,29.95,NW,315,2.0,2.0,64,0.00,,,0.00,Wunderground v.1.15,2013-10-16 12:50:00,
2013-10-16 06:55:00,43.8,32.8,29.95,NW,315,1.0,2.0,65,0.00,,,0.00,Wunderground v.1.15,2013-10-16 12:55:00,
2013-10-16 07:05:00,43.8,32.8,29.96,NW,310,1.0,1.0,65,0.00,,,0.00,Wunderground v.1.15,2013-10-16 13:05:00,
2013-10-16 07:10:00,43.9,32.9,29.96,NW,307,2.0,2.0,65,0.00,,,0.00,Wunderground v.1.15,2013-10-16 13:10:00,
2013-10-16 07:20:00,43.8,32.8,29.97,NW,307,2.0,2.0,65,0.00,,,0.00,Wunderground v.1.15,2013-10-16 13:20:00,
2013-10-16 07:25:00,43.6,32.6,29.97,NW,306,2.0,3.0,65,0.00,,,0.00,Wunderground v.1.15,2013-10-16 13:25:00,
2013-10-16 07:35:00,43.7,32.7,29.97,WNW,303,3.0,3.0,65,0.00,,,0.00,Wunderground v.1.15,2013-10-16 13:35:00,
2013-10-16 07:40:00,43.8,32.8,29.98,SW,234,3.0,3.0,65,0.00,,,0.00,Wunderground v.1.15,2013-10-16 13:40:00,
2013-10-16 07:45:00,43.9,32.9,29.98,WSW,237,3.0,4.0,65,0.00,,,0.00,Wunderground v.1.15,2013-10-16 13:45:00,
2013-10-16 07:55:00,43.9,32.9,29.98,West,270,4.0,4.0,65,0.00,,,0.00,Wunderground v.1.15,2013-10-16 13:55:00,
2013-10-16 08:00:00,43.6,32.6,29.98,WNW,298,4.0,4.0,65,0.00,,,0.00,Wunderground v.1.15,2013-10-16 14:00:00,
2013-10-16 08:05:00,43.5,32.5,29.98,WNW,298,3.0,4.0,65,0.00,,,0.00,Wunderground v.1.15,2013-10-16 14:05:00,
2013-10-16 08:15:00,43.7,32.7,29.98,WNW,298,2.0,2.0,65,0.00,,,0.00,Wunderground v.1.15,2013-10-16 14:15:00,
2013-10-16 08:20:00,43.9,32.9,29.99,WNW,298,1.0,1.0,65,0.00,,,0.00,Wunderground v.1.15,2013-10-16 14:20:00,
2013-10-16 08:30:00,44.0,33.0,29.98,WNW,298,1.0,1.0,65,0.00,,,0.00,Wunderground v.1.15,2013-10-16 14:30:00,
2013-10-16 08:35:00,44.4,33.4,29.99,WNW,298,0.0,1.0,65,0.00,,,0.00,Wunderground v.1.15,2013-10-16 14:35:00,
2013-10-16 08:45:00,45.9,34.0,29.99,WNW,298,0.0,1.0,63,0.00,,,0.00,Wunderground v.1.15,2013-10-16 14:45:00,
2013-10-16 08:50:00,46.4,33.7,29.99,WNW,298,1.0,3.0,61,0.00,,,0.00,Wunderground v.1.15,2013-10-16 14:50:00,
2013-10-16 08:55:00,46.7,33.5,29.99,WNW,296,1.0,3.0,60,0.00,,,0.00,Wunderground v.1.15,2013-10-16 14:55:00,
2013-10-16 09:05:00,47.2,33.6,29.99,WSW,243,2.0,2.0,59,0.00,,,0.00,Wunderground v.1.15,2013-10-16 15:05:00,
2013-10-16 09:10:00,47.8,34.2,29.99,WSW,243,1.0,1.0,59,0.00,,,0.00,Wunderground v.1.15,2013-10-16 15:10:00,
2013-10-16 09:15:00,48.3,34.2,30.00,WSW,243,1.0,2.0,58,0.00,,,0.00,Wunderground v.1.15,2013-10-16 15:15:00,
2013-10-16 09:25:00,47.2,33.2,30.00,West,272,3.0,3.0,58,0.00,,,0.00,Wunderground v.1.15,2013-10-16 15:25:00,
2013-10-16 09:30:00,46.5,32.9,30.00,NW,315,3.0,3.0,59,0.00,,,0.00,Wunderground v.1.15,2013-10-16 15:30:00,
2013-10-16 09:40:00,46.9,33.7,30.00,NW,313,2.0,2.0,60,0.00,,,0.00,Wunderground v.1.15,2013-10-16 15:40:00,
2013-10-16 09:45:00,48.2,34.1,30.00,West,281,1.0,2.0,58,0.00,,,0.00,Wunderground v.1.15,2013-10-16 15:45:00,
2013-10-16 09:50:00,49.0,34.0,30.00,South,182,1.0,1.0,56,0.00,,,0.00,Wunderground v.1.15,2013-10-16 15:50:00,
2013-10-16 10:00:00,50.0,34.0,30.00,South,183,1.0,2.0,54,0.00,,,0.00,Wunderground v.1.15,2013-10-16 16:00:00,
2013-10-16 10:05:00,50.4,33.9,30.00,South,183,1.0,2.0,53,0.00,,,0.00,Wunderground v.1.15,2013-10-16 16:05:00,
2013-10-16 10:15:00,51.5,34.0,29.99,SW,226,1.0,1.0,51,0.00,,,0.00,Wunderground v.1.15,2013-10-16 16:15:00,
2013-10-16 10:20:00,50.3,33.8,30.00,WNW,295,1.0,4.0,53,0.00,,,0.00,Wunderground v.1.15,2013-10-16 16:20:00,
2013-10-16 10:30:00,50.3,33.8,29.99,WSW,245,1.0,3.0,53,0.00,,,0.00,Wunderground v.1.15,2013-10-16 16:30:00,
2013-10-16 10:35:00,51.0,34.5,29.99,WSW,245,2.0,3.0,53,0.00,,,0.00,Wunderground v.1.15,2013-10-16 16:35:00,
2013-10-16 10:40:00,51.2,34.2,30.00,WSW,246,2.0,5.0,52,0.00,,,0.00,Wunderground v.1.15,2013-10-16 16:40:00,
2013-10-16 10:50:00,51.8,34.2,29.99,WSW,238,2.0,2.0,51,0.00,,,0.00,Wunderground v.1.15,2013-10-16 16:50:00,
2013-10-16 10:55:00,51.8,34.2,29.99,West,278,1.0,5.0,51,0.00,,,0.00,Wunderground v.1.15,2013-10-16 16:55:00,
2013-10-16 11:05:00,51.3,34.3,29.99,NW,306,2.0,2.0,52,0.00,,,0.00,Wunderground v.1.15,2013-10-16 17:05:00,
2013-10-16 11:10:00,52.1,35.0,29.99,WNW,300,1.0,2.0,52,0.00,,,0.00,Wunderground v.1.15,2013-10-16 17:10:00,
2013-10-16 11:15:00,53.0,34.8,29.99,WNW,288,1.0,2.0,50,0.00,,,0.00,Wunderground v.1.15,2013-10-16 17:15:00,
2013-10-16 11:20:00,53.0,34.8,29.99,North,349,2.0,4.0,50,0.00,,,0.00,Wunderground v.1.15,2013-10-16 17:20:00,
2013-10-16 11:30:00,52.6,34.5,29.99,North,11,3.0,3.0,50,0.00,,,0.00,Wunderground v.1.15,2013-10-16 17:30:00,
2013-10-16 11:35:00,51.9,33.8,29.99,WNW,300,3.0,4.0,50,0.00,,,0.00,Wunderground v.1.15,2013-10-16 17:35:00,
2013-10-16 11:40:00,51.3,33.8,29.99,WNW,295,4.0,4.0,51,0.00,,,0.00,Wunderground v.1.15,2013-10-16 17:40:00,
2013-10-16 11:45:00,51.2,33.7,29.99,NNW,332,4.0,4.0,51,0.00,,,0.00,Wunderground v.1.15,2013-10-16 17:45:00,
2013-10-16 11:55:00,51.9,33.3,29.98,NNW,328,3.0,7.0,49,0.00,,,0.00,Wunderground v.1.15,2013-10-16 17:55:00,
2013-10-16 12:00:00,51.3,33.3,29.98,NNW,337,5.0,8.0,50,0.00,,,0.00,Wunderground v.1.15,2013-10-16 18:00:00,
2013-10-16 12:10:00,52.2,33.6,29.98,North,355,5.0,5.0,49,0.00,,,0.00,Wunderground v.1.15,2013-10-16 18:10:00,
2013-10-16 12:20:00,53.0,34.3,29.97,North,5,3.0,3.0,49,0.00,,,0.00,Wunderground v.1.15,2013-10-16 18:20:00,
2013-10-16 12:25:00,53.2,34.5,29.97,North,360,4.0,10.0,49,0.00,,,0.00,Wunderground v.1.15,2013-10-16 18:25:00,
2013-10-16 12:35:00,53.8,34.0,29.97,NE,40,3.0,4.0,47,0.00,,,0.00,Wunderground v.1.15,2013-10-16 18:35:00,
2013-10-16 12:40:00,53.0,33.3,29.97,ENE,59,3.0,3.0,47,0.00,,,0.00,Wunderground v.1.15,2013-10-16 18:40:00,
2013-10-16 12:50:00,52.7,33.5,29.97,NNW,342,5.0,5.0,48,0.00,,,0.00,Wunderground v.1.15,2013-10-16 18:50:00,
2013-10-16 12:55:00,53.7,34.5,29.96,NNW,342,3.0,5.0,48,0.00,,,0.00,Wunderground v.1.15,2013-10-16 18:55:00,
2013-10-16 13:00:00,54.2,33.9,29.96,NNE,17,2.0,8.0,46,0.00,,,0.00,Wunderground v.1.15,2013-10-16 19:00:00,
2013-10-16 13:10:00,54.4,34.0,29.95,North,350,4.0,4.0,46,0.00,,,0.00,Wunderground v.1.15,2013-10-16 19:10:00,
2013-10-16 13:15:00,55.0,34.0,29.95,West,259,2.0,4.0,45,0.00,,,0.00,Wunderground v.1.15,2013-10-16 19:15:00,
2013-10-16 13:20:00,56.1,33.9,29.95,ENE,72,0.0,4.0,43,0.00,,,0.00,Wunderground v.1.15,2013-10-16 19:20:00,
2013-10-16 13:30:00,54.5,33.6,29.94,NE,37,4.0,6.0,45,0.00,,,0.00,Wunderground v.1.15,2013-10-16 19:30:00,
2013-10-16 13:35:00,54.4,33.5,29.94,NNE,14,4.0,6.0,45,0.00,,,0.00,Wunderground v.1.15,2013-10-16 19:35:00,
2013-10-16 13:40:00,55.0,33.5,29.94,NNE,32,2.0,2.0,44,0.00,,,0.00,Wunderground v.1.15,2013-10-16 19:40:00,
2013-10-16 13:50:00,55.2,33.6,29.94,ENE,78,2.0,2.0,44,0.00,,,0.00,Wunderground v.1.15,2013-10-16 19:50:00,
2013-10-16 13:55:00,56.2,34.0,29.93,ENE,78,1.0,2.0,43,0.00,,,0.00,Wunderground v.1.15,2013-10-16 19:55:00,
2013-10-16 14:05:00,55.9,33.1,29.93,East,84,1.0,1.0,42,0.00,,,0.00,Wunderground v.1.15,2013-10-16 20:05:00,
2013-10-16 14:10:00,56.3,33.5,29.93,SE,130,2.0,2.0,42,0.00,,,0.00,Wunderground v.1.15,2013-10-16 20:10:00,
2013-10-16 14:15:00,57.1,33.6,29.93,NNE,13,1.0,8.0,41,0.00,,,0.00,Wunderground v.1.15,2013-10-16 20:15:00,
2013-10-16 14:25:00,56.3,33.5,29.93,NE,54,2.0,2.0,42,0.00,,,0.00,Wunderground v.1.15,2013-10-16 20:25:00,
2013-10-16 14:30:00,56.7,33.2,29.92,East,98,2.0,2.0,41,0.00,,,0.00,Wunderground v.1.15,2013-10-16 20:30:00,
2013-10-16 14:40:00,57.3,33.2,29.92,SSW,196,1.0,1.0,40,0.00,,,0.00,Wunderground v.1.15,2013-10-16 20:40:00,
2013-10-16 14:45:00,57.8,33.0,29.92,WSW,254,1.0,1.0,39,0.00,,,0.00,Wunderground v.1.15,2013-10-16 20:45:00,
2013-10-16 14:55:00,59.0,33.4,29.92,SW,226,1.0,2.0,38,0.00,,,0.00,Wunderground v.1.15,2013-10-16 20:55:00,
2013-10-16 15:00:00,59.0,32.7,29.92,South,175,1.0,1.0,37,0.00,,,0.00,Wunderground v.1.15,2013-10-16 21:00:00,
2013-10-16 15:05:00,59.1,32.8,29.92,SSE,150,0.0,1.0,37,0.00,,,0.00,Wunderground v.1.15,2013-10-16 21:05:00,
2013-10-16 15:15:00,59.8,31.3,29.91,South,177,0.0,2.0,34,0.00,,,0.00,Wunderground v.1.15,2013-10-16 21:15:00,
2013-10-16 15:20:00,59.4,31.0,29.91,ENE,64,0.0,0.0,34,0.00,,,0.00,Wunderground v.1.15,2013-10-16 21:20:00,
2013-10-16 15:25:00,59.6,31.2,29.91,NE,37,0.0,3.0,34,0.00,,,0.00,Wunderground v.1.15,2013-10-16 21:25:00,
2013-10-16 15:35:00,59.0,30.6,29.91,North,9,3.0,4.0,34,0.00,,,0.00,Wunderground v.1.15,2013-10-16 21:35:00,
2013-10-16 15:40:00,59.9,31.4,29.91,NNE,32,0.0,0.0,34,0.00,,,0.00,Wunderground v.1.15,2013-10-16 21:40:00,
2013-10-16 15:45:00,60.3,30.3,29.91,North,360,0.0,1.0,32,0.00,,,0.00,Wunderground v.1.15,2013-10-16 21:45:00,
2013-10-16 15:55:00,60.4,27.1,29.91,WNW,302,3.0,3.0,28,0.00,,,0.00,Wunderground v.1.15,2013-10-16 21:55:00,
2013-10-16 16:00:00,59.9,26.7,29.91,North,5,2.0,7.0,28,0.00,,,0.00,Wunderground v.1.15,2013-10-16 22:00:00,
2013-10-16 16:10:00,60.5,26.3,29.91,WNW,294,5.0,5.0,27,0.00,,,0.00,Wunderground v.1.15,2013-10-16 22:10:00,
2013-10-16 16:15:00,60.7,26.5,29.91,North,355,5.0,8.0,27,0.00,,,0.00,Wunderground v.1.15,2013-10-16 22:15:00,
2013-10-16 16:20:00,60.2,25.1,29.91,North,355,6.0,7.0,26,0.00,,,0.00,Wunderground v.1.15,2013-10-16 22:20:00,
2013-10-16 16:30:00,60.1,23.1,29.91,NNW,338,8.0,12.0,24,0.00,,,0.00,Wunderground v.1.15,2013-10-16 22:30:00,
2013-10-16 16:35:00,60.1,22.1,29.91,NNE,14,11.0,13.0,23,0.00,,,0.00,Wunderground v.1.15,2013-10-16 22:35:00,
2013-10-16 16:45:00,59.9,22.0,29.91,NW,321,11.0,11.0,23,0.00,,,0.00,Wunderground v.1.15,2013-10-16 22:45:00,
2013-10-16 16:50:00,59.8,22.9,29.92,NNW,346,11.0,11.0,24,0.00,,,0.00,Wunderground v.1.15,2013-10-16 22:50:00,
2013-10-16 16:55:00,59.7,21.8,29.91,NNW,338,10.0,11.0,23,0.00,,,0.00,Wunderground v.1.15,2013-10-16 22:55:00,
2013-10-16 17:05:00,59.9,20.9,29.91,NNW,330,9.0,12.0,22,0.00,,,0.00,Wunderground v.1.15,2013-10-16 23:05:00,
2013-10-16 17:10:00,59.6,20.7,29.91,North,350,11.0,11.0,22,0.00,,,0.00,Wunderground v.1.15,2013-10-16 23:10:00,
2013-10-16 17:20:00,59.0,21.2,29.91,NNW,338,10.0,10.0,23,0.00,,,0.00,Wunderground v.1.15,2013-10-16 23:20:00,
2013-10-16 17:25:00,59.0,21.2,29.92,NNE,12,10.0,10.0,23,0.00,,,0.00,Wunderground v.1.15,2013-10-16 23:25:00,
2013-10-16 17:35:00,59.0,21.2,29.92,NW,324,9.0,12.0,23,0.00,,,0.00,Wunderground v.1.15,2013-10-16 23:35:00,
2013-10-16 17:40:00,58.5,19.7,29.92,North,355,10.0,14.0,22,0.00,,,0.00,Wunderground v.1.15,2013-10-16 23:40:00,
2013-10-16 17:45:00,58.3,20.6,29.92,NNW,337,10.0,14.0,23,0.00,,,0.00,Wunderground v.1.15,2013-10-16 23:45:00,
2013-10-16 17:55:00,58.0,20.4,29.93,North,355,11.0,11.0,23,0.00,,,0.00,Wunderground v.1.15,2013-10-16 23:55:00,
2013-10-16 18:00:00,57.8,21.2,29.93,NNW,334,9.0,9.0,24,0.00,,,0.00,Wunderground v.1.15,2013-10-17 00:00:00,
2013-10-16 18:05:00,57.7,21.1,29.93,NNE,27,8.0,9.0,24,0.00,,,0.00,Wunderground v.1.15,2013-10-17 00:05:00,
2013-10-16 18:15:00,57.2,21.6,29.93,NNE,20,8.0,9.0,25,0.00,,,0.00,Wunderground v.1.15,2013-10-17 00:15:00,
2013-10-16 18:20:00,57.1,21.6,29.94,North,360,6.0,6.0,25,0.00,,,0.00,Wunderground v.1.15,2013-10-17 00:20:00,
2013-10-16 18:30:00,56.4,21.0,29.94,NNE,20,6.0,6.0,25,0.00,,,0.00,Wunderground v.1.15,2013-10-17 00:30:00,
2013-10-16 18:35:00,56.3,20.9,29.94,North,355,5.0,6.0,25,0.00,,,0.00,Wunderground v.1.15,2013-10-17 00:35:00,
2013-10-16 18:40:00,56.1,20.7,29.94,North,10,6.0,6.0,25,0.00,,,0.00,Wunderground v.1.15,2013-10-17 00:40:00,
2013-10-16 18:50:00,55.8,20.5,29.95,North,5,7.0,8.0,25,0.00,,,0.00,Wunderground v.1.15,2013-10-17 00:50:00,
2013-10-16 18:55:00,55.6,20.3,29.95,North,360,7.0,8.0,25,0.00,,,0.00,Wunderground v.1.15,2013-10-17 00:55:00,
2013-10-16 19:05:00,55.1,20.8,29.95,NNE,31,6.0,6.0,26,0.00,,,0.00,Wunderground v.1.15,2013-10-17 01:05:00,
2013-10-16 19:10:00,54.9,19.7,29.95,North,355,6.0,8.0,25,0.00,,,0.00,Wunderground v.1.15,2013-10-17 01:10:00,
2013-10-16 19:20:00,54.8,19.6,29.95,North,360,9.0,9.0,25,0.00,,,0.00,Wunderground v.1.15,2013-10-17 01:20:00,
2013-10-16 19:25:00,54.7,19.5,29.95,North,360,8.0,9.0,25,0.00,,,0.00,Wunderground v.1.15,2013-10-17 01:25:00,
2013-10-16 19:30:00,54.7,19.5,29.96,North,360,9.0,13.0,25,0.00,,,0.00,Wunderground v.1.15,2013-10-17 01:30:00,
2013-10-16 19:35:00,54.5,19.3,29.96,North,360,9.0,13.0,25,0.00,,,0.00,Wunderground v.1.15,2013-10-17 01:35:00,
2013-10-16 19:45:00,54.0,18.9,29.97,NNE,19,7.0,9.0,25,0.00,,,0.00,Wunderground v.1.15,2013-10-17 01:45:00,
2013-10-16 19:50:00,53.7,19.6,29.97,NNE,13,5.0,5.0,26,0.00,,,0.00,Wunderground v.1.15,2013-10-17 01:50:00,
2013-10-16 20:00:00,53.7,17.7,29.98,North,5,8.0,8.0,24,0.00,,,0.00,Wunderground v.1.15,2013-10-17 02:00:00,
2013-10-16 20:05:00,53.6,17.6,29.98,North,5,7.0,8.0,24,0.00,,,0.00,Wunderground v.1.15,2013-10-17 02:05:00,
2013-10-16 20:10:00,53.5,17.5,29.98,NNE,17,7.0,9.0,24,0.00,,,0.00,Wunderground v.1.15,2013-10-17 02:10:00,
2013-10-16 20:20:00,53.5,16.6,29.98,NNE,15,10.0,10.0,23,0.00,,,0.00,Wunderground v.1.15,2013-10-17 02:20:00,
2013-10-16 20:25:00,53.2,16.3,29.98,North,360,9.0,10.0,23,0.00,,,0.00,Wunderground v.1.15,2013-10-17 02:25:00,
2013-10-16 20:30:00,52.9,16.1,29.98,North,5,9.0,9.0,23,0.00,,,0.00,Wunderground v.1.15,2013-10-17 02:30:00,
2013-10-16 20:40:00,52.6,15.8,29.99,North,10,10.0,10.0,23,0.00,,,0.00,Wunderground v.1.15,2013-10-17 02:40:00,
2013-10-16 20:45:00,52.6,15.8,29.99,NNE,15,10.0,10.0,23,0.00,,,0.00,Wunderground v.1.15,2013-10-17 02:45:00,
2013-10-16 20:50:00,52.3,15.5,29.99,NNE,24,9.0,9.0,23,0.00,,,0.00,Wunderground v.1.15,2013-10-17 02:50:00,
2013-10-16 21:00:00,52.0,15.3,30.00,NE,48,8.0,10.0,23,0.00,,,0.00,Wunderground v.1.15,2013-10-17 03:00:00,
2013-10-16 21:05:00,52.1,15.4,30.00,North,360,9.0,10.0,23,0.00,,,0.00,Wunderground v.1.15,2013-10-17 03:05:00,
2013-10-16 21:10:00,52.1,15.4,30.00,North,351,9.0,9.0,23,0.00,,,0.00,Wunderground v.1.15,2013-10-17 03:10:00,
2013-10-16 21:20:00,51.7,16.0,30.00,North,360,9.0,13.0,24,0.00,,,0.00,Wunderground v.1.15,2013-10-17 03:20:00,
2013-10-16 21:25:00,51.3,16.6,30.00,North,355,9.0,13.0,25,0.00,,,0.00,Wunderground v.1.15,2013-10-17 03:25:00,
2013-10-16 21:35:00,51.0,16.4,30.01,NNE,14,5.0,7.0,25,0.00,,,0.00,Wunderground v.1.15,2013-10-17 03:35:00,
2013-10-16 21:40:00,50.9,16.3,30.01,NNE,19,6.0,9.0,25,0.00,,,0.00,Wunderground v.1.15,2013-10-17 03:40:00,
2013-10-16 21:45:00,51.0,16.4,30.00,North,360,7.0,10.0,25,0.00,,,0.00,Wunderground v.1.15,2013-10-17 03:45:00,
2013-10-16 21:50:00,50.9,17.2,30.00,NNW,330,8.0,13.0,26,0.00,,,0.00,Wunderground v.1.15,2013-10-17 03:50:00,
2013-10-16 22:00:00,50.6,16.9,30.00,North,351,9.0,12.0,26,0.00,,,0.00,Wunderground v.1.15,2013-10-17 04:00:00,
2013-10-16 22:05:00,50.2,17.5,30.01,North,360,8.0,12.0,27,0.00,,,0.00,Wunderground v.1.15,2013-10-17 04:05:00,
2013-10-16 22:10:00,49.8,17.1,30.01,North,11,7.0,11.0,27,0.00,,,0.00,Wunderground v.1.15,2013-10-17 04:10:00,
2013-10-16 22:15:00,49.7,17.0,30.01,North,5,8.0,11.0,27,0.00,,,0.00,Wunderground v.1.15,2013-10-17 04:15:00,
2013-10-16 22:20:00,49.9,17.2,30.01,NNW,348,8.0,8.0,27,0.00,,,0.00,Wunderground v.1.15,2013-10-17 04:20:00,
2013-10-16 22:30:00,50.1,17.4,30.00,North,355,9.0,9.0,27,0.00,,,0.00,Wunderground v.1.15,2013-10-17 04:30:00,
2013-10-16 22:35:00,49.9,17.2,30.01,North,350,8.0,9.0,27,0.00,,,0.00,Wunderground v.1.15,2013-10-17 04:35:00,
2013-10-16 22:40:00,49.6,17.8,30.01,North,350,8.0,8.0,28,0.00,,,0.00,Wunderground v.1.15,2013-10-17 04:40:00,
2013-10-16 22:50:00,48.9,18.0,30.02,North,355,5.0,5.0,29,0.00,,,0.00,Wunderground v.1.15,2013-10-17 04:50:00,
2013-10-16 22:55:00,48.2,18.2,30.01,NNW,334,4.0,5.0,30,0.00,,,0.00,Wunderground v.1.15,2013-10-17 04:55:00,
2013-10-16 23:00:00,47.8,18.6,30.01,NNW,334,4.0,4.0,31,0.00,,,0.00,Wunderground v.1.15,2013-10-17 05:00:00,
2013-10-16 23:05:00,47.9,17.9,30.01,NNW,345,5.0,7.0,30,0.00,,,0.00,Wunderground v.1.15,2013-10-17 05:05:00,
2013-10-16 23:10:00,47.8,17.8,30.01,North,5,6.0,7.0,30,0.00,,,0.00,Wunderground v.1.15,2013-10-17 05:10:00,
2013-10-16 23:15:00,47.6,17.6,30.01,North,360,5.0,7.0,30,0.00,,,0.00,Wunderground v.1.15,2013-10-17 05:15:00,
2013-10-16 23:25:00,46.9,18.5,30.01,North,355,3.0,4.0,32,0.00,,,0.00,Wunderground v.1.15,2013-10-17 05:25:00,
2013-10-16 23:30:00,46.3,18.7,30.01,North,355,4.0,4.0,33,0.00,,,0.00,Wunderground v.1.15,2013-10-17 05:30:00,
2013-10-16 23:40:00,45.9,18.4,30.01,NNW,344,3.0,3.0,33,0.00,,,0.00,Wunderground v.1.15,2013-10-17 05:40:00,
2013-10-16 23:45:00,45.6,18.1,30.01,NNW,344,1.0,3.0,33,0.00,,,0.00,Wunderground v.1.15,2013-10-17 05:45:00,
2013-10-16 23:50:00,45.3,18.5,30.01,NNW,344,1.0,4.0,34,0.00,,,0.00,Wunderground v.1.15,2013-10-17 05:50:00,